St. Cloud, MN

4:33 PM CDT on October 23, 2017 (GMT -0500)
Saint Cloud Regional

Weather History for KSTC - February, 2012

Change the Weather History Date:

Wednesday, February 22, 2012

  Actual Average Record
Temperature  
Mean Temperature 24 °F 20 °F  
Max Temperature 33 °F 29 °F 55 °F (1961)
Min Temperature 14 °F 10 °F -19 °F (1972)
Degree Days  
Heating Degree Days 41 45  
Month to date heating degree days 882 1079  
Since 1 July heating degree days 5089 6181  
Cooling Degree Days 0 0  
Month to date cooling degree days 0 0  
Year to date cooling degree days 0 0  
Moisture  
Dew Point 19 °F    
Average Humidity 74    
Maximum Humidity 88    
Minimum Humidity 59    
Precipitation  
Precipitation 0.00 in 0.03 in 0.67 in (1979)
Month to date precipitation 0.25 0.42  
Year to date precipitation 0.82 1.07  
Snow  
Snow 0.00 in 0.30 in 4.20 in (1913)
Month to date snowfall 2.6 5.3  
Since 1 July snowfall 18.8 32.5  
Snow Depth 2.00 in    
Sea Level Pressure  
Sea Level Pressure 29.50 in    
Wind  
Wind Speed 4 mph (West)    
Max Wind Speed 12 mph    
Max Gust Speed 15 mph    
Visibility 10 miles    
Events      
T = Trace of Precipitation, MM = Missing Value Source: NWS Daily Summary

Daily Weather History Graph

Daily Weather History Graph

Search for Another Location

Airport or City:

Trip Planner

Search our weather history database for the weather conditions in past years. The results will help you decide how hot, cold, wet, or windy it might be!

Date:

Astronomy

Feb. 22, 2012 Rise Set
Actual Time 7:07 AM CST 5:52 PM CST
Civil Twilight 6:37 AM CST 6:22 PM CST
Nautical Twilight 6:03 AM CST 6:57 PM CST
Astronomical Twilight 5:28 AM CST 7:31 PM CST
Moon 7:01 AM CST (2/22) 7:06 PM CST (2/22)
Length of Visible Light 11h 45m
Length of Day
10h 45m
New Moon, 1% of the Moon is Illuminated
Feb 22
New Moon
Feb 29
First Quarter
Mar 8
Full
Mar 14
Last Quarter
Mar 22
New

Hourly Weather History & Observations

Time (CST) Temp. Windchill Dew Point Humidity Pressure Visibility Wind Dir Wind Speed Gust Speed Precip Events Conditions
12:53 AM 21.0 °F 11.4 °F 17.1 °F 85% 29.59 in 10.0 mi SW 8.1 mph - N/A   Clear
1:53 AM 19.9 °F 10.1 °F 16.0 °F 85% 29.58 in 10.0 mi WSW 8.1 mph - N/A   Clear
2:53 AM 19.0 °F 10.0 °F 15.1 °F 85% 29.57 in 10.0 mi West 6.9 mph - N/A   Clear
3:53 AM 18.0 °F 8.7 °F 14.0 °F 84% 29.55 in 10.0 mi WNW 6.9 mph - N/A   Clear
4:53 AM 17.6 °F 10.7 °F 14.0 °F 86% 29.48 in 10.0 mi WNW 4.6 mph - N/A   Clear
5:53 AM 15.1 °F 5.2 °F 10.9 °F 84% 29.54 in 10.0 mi NW 6.9 mph - N/A   Clear
6:53 AM 16.0 °F - 12.9 °F 88% 29.54 in 8.0 mi Calm Calm - N/A   Clear
7:53 AM 17.1 °F - 12.9 °F 84% 29.55 in 7.0 mi Calm Calm - N/A   Clear
8:53 AM 21.0 °F - 16.0 °F 81% 29.53 in 9.0 mi Calm Calm - N/A   Clear
9:53 AM 26.1 °F 21.9 °F 18.0 °F 71% 29.53 in 10.0 mi NW 3.5 mph - N/A   Clear
10:53 AM 28.0 °F 21.7 °F 19.0 °F 69% 29.53 in 10.0 mi NW 5.8 mph - N/A   Mostly Cloudy
11:53 AM 30.0 °F 22.4 °F 19.0 °F 64% 29.51 in 10.0 mi NW 8.1 mph - N/A   Overcast
12:53 PM 32.0 °F 24.8 °F 19.9 °F 61% 29.49 in 10.0 mi NW 8.1 mph - N/A   Mostly Cloudy
1:53 PM 32.0 °F 24.8 °F 21.0 °F 64% 29.47 in 10.0 mi West 8.1 mph - N/A   Overcast
2:53 PM 33.1 °F 26.9 °F 21.0 °F 61% 29.47 in 10.0 mi WNW 6.9 mph - N/A   Overcast
3:53 PM 32.0 °F 25.6 °F 21.9 °F 66% 29.46 in 10.0 mi WSW 6.9 mph - N/A   Overcast
4:53 PM 30.9 °F 23.5 °F 21.9 °F 69% 29.46 in 10.0 mi WSW 8.1 mph - N/A   Overcast
5:53 PM 30.9 °F 24.3 °F 23.0 °F 72% 29.48 in 10.0 mi WSW 6.9 mph - N/A   Overcast
6:53 PM 28.9 °F - 23.0 °F 78% 29.47 in 10.0 mi Calm Calm - N/A   Overcast
7:53 PM 28.9 °F - 23.0 °F 78% 29.48 in 10.0 mi Calm Calm - N/A   Overcast
8:53 PM 30.0 °F - 23.0 °F 75% 29.47 in 10.0 mi Calm Calm - N/A   Overcast
9:53 PM 28.9 °F - 23.0 °F 78% 29.46 in 10.0 mi Calm Calm - N/A   Overcast
10:24 PM 28.4 °F - 23.0 °F 80% 29.40 in 9.0 mi Calm Calm - N/A   Overcast
10:53 PM 28.9 °F - 23.0 °F 78% 29.46 in 10.0 mi Calm Calm - N/A   Overcast
11:53 PM 30.0 °F - 23.0 °F 75% 29.46 in 10.0 mi Calm Calm - N/A   Overcast